Location: Mount Wilson Observatory
(34.2257°N, 118.0571°W)
Time: 10:29:32
(UTC-08:00)

ATLAS 3B CENTAUR R/B - Visible Passes

Search period start: 30 January 2015 00:00
Search period end: 09 February 2015 00:00
Orbit: 228 x 8047 km, 28.1° (Epoch: 30 January)

Date Brightness Start Highest point End Pass type
(mag) Time Alt. Az. Time Alt. Az. Time Alt. Az.
30 Jan 5.5 17:08:39 10° SSW 17:43:57 34° SSE 17:57:53 10° ESE visible
30 Jan 4.5 20:41:34 10° WSW 20:58:07 45° SSW 20:58:07 45° SSW visible
31 Jan 5.5 16:55:23 10° SSW 17:32:55 35° SSE 17:47:43 10° ESE visible
31 Jan 4.3 20:29:16 10° WSW 20:48:27 50° SSW 20:48:27 50° SSW visible
01 Feb 4.2 20:16:25 10° WSW 20:38:26 54° S 20:38:26 54° S visible
02 Feb 4.1 20:03:00 10° WSW 20:27:44 56° S 20:28:04 56° S visible
03 Feb 4.1 19:49:01 10° WSW 20:16:00 58° S 20:17:21 55° SSE visible
04 Feb 4.1 19:34:28 10° WSW 20:03:51 59° S 20:06:17 52° SE visible
05 Feb 4.2 19:19:22 10° WSW 19:51:15 60° S 19:54:51 47° SE visible
05 Feb 5.9 22:51:57 10° W 22:53:24 13° W 22:53:24 13° W visible
06 Feb 4.3 19:03:42 10° WSW 19:38:12 62° S 19:43:05 42° ESE visible
06 Feb 5.7 22:38:01 10° W 22:41:35 17° W 22:41:35 17° W visible
07 Feb 4.4 18:47:31 10° WSW 19:24:43 63° S 19:30:57 36° ESE visible
07 Feb 5.5 22:23:32 10° W 22:29:25 22° W 22:29:25 22° W visible
08 Feb 4.6 18:30:48 10° WSW 19:10:45 64° S 19:18:28 31° ESE visible
08 Feb 5.3 22:08:29 10° W 22:16:53 27° W 22:16:53 27° W visible
